Theta_e
326 328 330 332 339 341 341 339 337 333 334 335 332 332 332 331 330 328 328 331 332 334 335 342 341 344 334 335 332 324 324 328
326 327 329 330 337 339 340 339 337 330 332 333 332 331 330 330 332 329 332 333 330 329 331 332 337 334 334 332 326 326 324 328
326 327 327 327 335 337 335 337 336 328 328 328 329 331 332 332 335 336 338 337 336 337 328 330 335 336 334 331 325 321 325 322
321 321 321 326 334 331 332 335 333 329 326 326 329 330 333 334 338 338 340 339 335 336 333 331 330 335 334 327 321 324 324 320
322 323 323 328 331 333 333 336 335 330 334 331 332 333 334 336 337 338 338 339 340 334 334 331 332 329 329 327 322 322 323 321
323 324 325 330 332 332 332 339 339 340 341 336 336 333 334 334 338 340 341 344 341 336 335 331 333 329 330 323 320 319 320 322
325 326 328 328 332 332 334 335 335 339 341 340 340 339 339 338 339 339 341 341 341 337 333 330 332 330 327 325 322 319 320 320
329 331 332 331 334 335 336 337 336 337 339 341 340 338 338 339 339 339 341 341 342 336 331 328 331 329 325 325 322 322 322 321
332 334 335 335 335 335 336 337 336 336 337 339 338 337 338 336 338 340 340 342 338 330 326 325 327 327 326 324 323 320 320 320
332 334 336 337 336 337 337 339 338 336 338 338 340 338 338 340 338 340 339 335 333 330 329 326 327 328 328 327 323 320 321 321
331 331 336 339 337 337 338 341 339 338 338 340 339 338 337 336 335 334 337 335 333 331 329 328 327 328 327 324 323 320 318 319
331 331 331 340 340 341 342 342 340 339 341 339 338 335 332 334 334 335 335 336 335 334 331 331 328 329 327 326 327 322 320 319
331 331 332 333 342 346 346 343 340 340 342 340 337 334 334 333 335 335 335 335 336 336 333 331 328 328 328 327 327 324 323 321
333 332 334 335 338 345 347 342 340 339 339 338 338 337 337 335 332 334 334 334 334 334 335 332 330 328 327 326 327 326 325 322
331 330 333 336 341 345 344 344 341 342 343 342 340 338 336 335 332 332 331 332 333 334 333 331 330 329 329 328 326 325 325 323
331 334 335 338 342 342 343 344 344 344 345 343 344 341 337 336 333 334 332 332 333 334 333 333 332 331 330 328 327 326 325 326
330 330 334 335 335 336 337 335 336 338 343 343 341 339 337 337 335 334 334 334 337 334 332 332 332 332 332 328 328 328 324 326
328 329 332 332 332 329 327 326 324 333 338 339 339 338 339 338 336 329 327 326 327 327 330 331 330 330 329 326 325 324 322 324
328 329 332 329 327 325 324 322 330 333 335 334 335 334 337 333 330 328 326 327 329 330 331 330 329 328 326 323 323 324 323 322
326 327 325 326 322 321 322 329 323 323 331 331 330 330 329 327 327 326 327 328 328 327 328 327 326 327 326 324 323 322 320 318
Wind_Speed
18 15 18 19 14 10 12 11 9 10 7 4 3 3 3 4 6 5 5 3 2 3 2 2 2 4 1 2 4 3 6 4
16 15 15 12 14 13 12 11 10 9 5 5 4 4 3 3 4 6 3 3 3 3 3 3 3 0 2 2 2 3 6 6
16 16 13 12 15 13 11 11 11 8 8 5 4 5 4 4 4 5 4 3 4 3 3 3 4 4 3 3 0 4 5 5
6 8 8 11 15 11 10 13 11 9 7 6 6 4 5 5 5 5 5 4 4 4 3 2 3 3 3 3 3 3 5 5
12 13 12 14 15 12 11 12 9 10 8 8 5 7 5 4 5 4 5 4 4 3 2 2 2 3 5 4 3 3 4 4
11 12 13 11 13 14 12 12 10 8 7 6 4 4 4 4 4 5 6 5 4 3 3 3 2 3 2 2 1 2 2 4
9 13 13 12 14 10 9 8 10 9 7 5 4 5 3 3 4 4 5 6 6 4 3 4 2 2 2 2 2 2 3 1
11 11 13 14 11 10 9 6 7 7 5 4 3 4 1 3 4 4 7 5 5 5 4 4 3 3 1 2 3 1 2 2
11 9 12 12 9 11 10 10 8 5 3 4 3 3 3 2 3 7 5 3 5 5 3 3 2 2 3 4 2 3 2 1
10 9 12 15 16 13 10 10 9 6 5 3 3 4 4 2 3 3 5 5 6 6 5 4 4 1 3 4 3 2 2 2
12 10 14 13 15 13 12 10 11 8 5 3 2 2 2 2 1 2 4 6 7 6 6 5 6 4 4 4 3 4 4 2
13 12 11 16 14 12 12 10 10 6 8 5 5 4 4 3 4 3 4 6 6 5 5 5 5 4 4 4 4 4 2 5
16 14 14 9 12 14 12 10 10 7 9 6 3 2 1 0 2 5 5 5 6 6 6 5 5 4 4 5 4 5 4 3
15 11 8 7 7 7 8 8 5 4 1 3 7 8 7 4 2 4 4 3 3 5 5 5 5 6 6 6 6 6 5 5
13 11 8 10 9 9 7 9 7 8 8 8 9 8 4 5 3 3 3 2 3 6 5 6 5 6 6 5 5 6 6 4
14 13 13 13 13 12 10 9 8 11 11 10 6 4 3 3 4 3 3 3 4 3 6 6 7 7 6 5 4 6 6 6
14 14 15 14 14 14 13 13 7 7 3 3 3 3 4 5 7 5 2 3 1 3 1 3 5 6 7 5 5 8 5 7
15 13 15 12 16 14 9 7 6 7 4 4 2 5 6 6 6 3 3 3 1 2 4 4 5 6 6 5 5 6 5 7
14 13 11 7 6 3 2 9 9 6 6 4 4 3 3 5 5 4 4 0 3 4 5 4 4 5 6 2 5 6 5 6
11 10 6 5 4 5 7 8 6 5 5 4 4 5 6 3 5 5 2 5 5 6 5 5 5 5 5 5 6 6 5 6
Wind_Direction
161 171 175 182 177 174 175 171 174 174 174 173 184 194 192 199 205 203 207 218 229 189 227 203 175 213 295 319 349 20 28 115
172 180 187 168 175 183 174 175 179 179 154 182 190 186 206 214 217 217 207 184 190 191 211 213 213 163 234 281 17 30 37 88
178 182 184 160 173 180 174 174 183 176 171 171 191 201 202 216 220 213 203 173 167 142 206 233 219 188 202 248 94 67 53 87
141 152 152 158 172 171 162 179 180 177 170 176 197 203 197 198 216 198 189 151 148 146 168 200 249 190 178 188 145 87 98 105
170 164 158 154 169 156 159 164 173 174 177 189 191 208 187 192 199 182 164 164 146 138 111 109 161 164 180 191 101 70 67 112
173 169 161 163 156 168 166 160 161 158 161 153 155 161 179 180 175 166 168 165 161 140 112 139 185 151 182 128 158 115 108 130
187 175 168 164 166 160 168 168 169 160 152 148 125 135 156 161 157 168 184 192 174 150 145 147 137 133 186 208 212 155 154 175
191 179 171 167 160 161 162 161 160 162 149 116 100 109 144 173 183 193 192 207 178 155 152 141 132 130 203 295 264 266 252 198
187 175 167 163 166 155 172 160 180 153 155 145 144 186 192 209 210 204 206 161 137 133 170 158 173 157 234 218 218 230 299 17
177 174 158 171 178 179 176 171 169 176 174 168 150 161 215 192 176 204 165 172 158 170 179 185 167 164 271 274 213 216 238 182
171 166 174 166 180 183 177 167 175 183 183 136 95 92 56 102 199 185 190 189 191 192 195 194 196 168 190 210 230 205 230 293
172 168 160 175 180 180 183 169 166 177 184 173 187 172 168 204 188 182 198 202 211 201 202 208 222 209 202 202 192 222 194 246
179 181 175 168 157 171 174 166 171 185 181 194 165 197 204 313 205 178 201 220 226 214 208 215 226 222 241 222 232 217 205 230
181 174 145 144 105 121 129 129 151 128 67 174 209 210 204 204 194 187 211 236 238 246 219 219 227 231 226 222 216 225 232 230
162 149 128 98 113 109 104 128 151 152 183 188 212 221 190 237 166 187 201 240 248 239 222 225 237 242 239 239 236 238 230 219
152 137 123 125 125 121 131 155 174 198 180 203 224 225 135 112 255 226 189 215 240 229 228 221 232 237 240 249 259 256 256 253
121 124 134 138 141 150 155 174 198 161 159 196 251 163 115 83 289 227 138 197 264 12 312 250 261 258 253 260 254 262 263 263
123 136 143 149 158 171 199 151 125 91 113 164 191 162 141 154 219 218 212 258 134 296 290 285 285 273 270 273 272 277 272 277
135 153 148 126 34 341 85 60 78 68 59 41 42 100 171 120 229 239 256 234 349 297 278 283 266 274 290 296 280 282 280 290
116 127 124 118 64 7 51 70 85 105 75 84 175 98 116 217 257 251 43 34 37 29 16 12 2 346 338 331 319 315 300 305